Probability
1 0 1 3 4 2 1 0 0 0 0 0 1 5 9 13 17 19 19 22 27 29 29 28 27 27 26 21 17 13 12 11 9 6 4 2 1 1 1 0 0 0 0 1 1 0 0 0 0
1 0 1 3 3 1 0 0 0 0 0 0 1 5 10 14 16 18 20 22 25 28 28 27 28 28 26 23 18 14 12 11 8 5 4 3 2 2 2 1 1 1 1 1 2 1 1 0 0
1 0 1 2 2 1 0 0 0 0 0 1 2 5 9 13 15 17 20 21 23 26 27 29 30 29 26 25 21 16 13 11 7 5 5 5 4 4 4 3 3 2 1 1 2 3 2 1 0
2 1 0 1 1 0 0 0 0 0 1 3 4 6 8 11 14 18 20 21 23 26 28 31 31 28 26 25 22 19 15 11 8 6 5 5 5 5 6 6 6 4 2 1 2 2 2 2 1
2 1 0 0 0 0 0 0 0 1 2 4 5 6 7 9 13 18 20 21 23 26 28 30 31 28 25 24 22 20 17 12 8 6 5 5 5 5 7 10 9 7 3 1 1 1 1 2 2
2 1 0 0 0 0 0 0 1 2 3 3 4 6 6 7 11 16 19 22 23 23 25 28 30 28 24 23 21 20 19 15 10 6 5 4 5 6 8 10 9 7 4 1 0 0 0 1 1
2 1 0 0 0 0 0 1 2 3 3 3 4 6 7 8 10 14 17 21 22 21 22 25 28 27 24 22 22 22 22 19 14 9 5 4 5 7 8 8 6 4 3 3 2 1 1 1 1
2 1 0 0 0 0 0 1 3 4 4 3 4 6 7 9 11 14 16 19 20 20 20 22 25 26 24 23 22 22 22 18 14 9 5 3 3 4 5 5 4 3 3 4 3 2 2 2 2
2 1 0 0 0 0 0 1 1 3 3 3 4 6 8 10 14 16 17 17 19 20 19 20 22 23 23 22 19 17 16 13 9 7 4 2 1 2 3 3 3 3 3 3 2 2 2 2 1
1 0 0 0 0 0 0 0 0 1 3 4 5 7 8 10 12 15 17 17 18 20 20 20 20 20 19 18 15 12 10 9 7 5 3 1 1 2 2 1 1 2 3 3 2 1 1 1 0
0 0 0 0 0 0 0 1 1 1 3 3 4 6 7 8 10 13 16 17 18 18 19 18 16 15 15 14 12 9 8 7 7 6 4 1 1 2 3 2 1 1 3 3 3 2 1 0 0
0 0 0 0 0 0 0 1 2 2 3 3 3 4 5 6 8 12 14 15 14 14 13 12 12 11 10 11 11 9 7 6 6 6 5 2 0 2 4 3 1 1 2 3 3 2 1 0 0
0 0 0 0 0 0 0 1 1 1 3 3 3 4 4 6 8 10 11 10 9 8 8 8 7 7 7 9 10 8 5 4 5 6 5 3 1 2 3 4 2 1 1 3 3 2 1 0 0
0 0 0 0 0 0 0 0 0 1 2 3 3 4 5 6 7 9 9 7 5 4 5 5 4 4 5 6 6 5 2 1 2 4 4 4 3 3 3 3 3 1 1 2 3 3 1 0 0
0 0 0 0 0 0 0 0 0 1 2 3 2 3 5 7 6 7 7 5 4 3 2 2 2 1 2 3 3 2 0 0 0 1 2 3 4 3 2 3 3 2 2 2 3 3 2 1 0
0 0 0 0 0 0 0 0 0 1 1 1 1 1 3 5 5 4 4 4 3 2 1 0 0 0 0 1 1 0 0 0 0 0 0 2 3 2 1 1 2 3 2 1 2 3 2 1 0
0 0 0 0 0 0 0 0 0 0 0 0 0 0 1 3 3 3 3 3 2 1 0 0 0 0 0 0 0 0 0 0 0 0 0 1 2 1 0 0 1 2 1 1 1 3 3 1 0
0 0 0 0 0 0 0 0 0 0 0 0 0 0 1 2 3 3 2 1 1 0 0 0 0 0 0 0 0 0 0 0 0 0 0 1 1 1 0 0 0 0 1 1 1 2 3 2 1
0 0 0 0 0 0 0 0 0 0 0 0 0 0 1 2 2 1 1 0 0 0 0 0 0 0 0 0 0 0 0 0 0 0 0 0 0 0 0 0 0 0 0 0 0 1 2 1 0
0 0 0 0 0 0 0 0 0 0 0 0 0 0 0 1 1 0 0 0 0 0 0 0 0 0 0 0 0 0 1 0 0 0 0 0 0 0 0 0 0 0 0 0 0 0 0 0 0
0 0 0 0 0 0 0 0 0 0 0 0 0 0 0 0 0 0 0 0 0 0 0 0 0 0 0 0 0 0 0 0 0 0 0 0 0 0 0 0 0 0 0 0 0 0 0 0 0
0 0 0 0 0 0 0 0 0 0 0 0 0 0 0 0 0 0 0 0 0 0 0 0 0 0 0 0 1 0 0 0 0 0 0 0 0 0 0 0 0 0 0 0 0 0 0 0 0
0 0 0 0 0 0 0 0 0 0 0 0 0 0 0 0 0 0 0 0 0 0 0 0 0 0 0 0 0 0 0 0 0 0 0 0 0 0 0 0 0 0 0 0 0 0 0 0 0
0 0 0 0 0 0 0 0 0 0 0 0 0 0 0 0 0 0 0 0 0 0 0 0 0 0 0 0 0 0 0 0 0 0 0 0 0 0 0 0 0 0 0 0 0 0 0 0 0
0 0 0 0 0 0 0 0 0 0 0 0 0 0 0 0 0 0 0 0 0 0 0 0 0 0 0 0 0 0 0 0 0 0 0 0 0 0 0 0 0 0 0 0 0 0 0 0 0
0 0 0 0 0 0 0 0 0 0 0 0 0 0 0 0 0 0 0 0 0 0 0 0 0 0 0 0 0 0 0 0 0 0 0 0 0 0 0 0 0 0 0 0 0 0 0 0 0
0 0 0 0 0 0 0 0 0 0 0 0 0 0 0 0 0 0 0 0 0 0 0 0 0 0 0 0 0 0 0 0 0 0 0 0 0 0 0 0 0 0 0 0 0 0 0 0 0
0 0 0 0 0 0 0 0 0 0 0 0 0 0 0 0 0 0 0 0 0 0 0 0 0 0 0 0 0 0 0 0 0 0 0 0 0 0 0 0 0 0 0 0 0 0 0 0 0
0 0 0 0 0 0 0 0 0 0 0 0 0 0 0 0 0 0 0 0 0 0 0 0 0 0 0 0 0 0 0 0 0 0 0 0 0 0 0 0 0 0 0 0 0 0 0 0 0
0 0 0 0 0 0 0 0 0 0 0 0 0 0 0 0 0 0 0 0 0 0 0 0 0 0 0 0 0 0 0 0 0 0 0 0 0 0 0 0 0 0 0 0 0 0 0 0 0
Wind_Speed
13 9 5 2 2 4 8 6 5 2 1 3 5 4 4 4 3 6 4 7 10 12 12 12 12 11 10 10 9 8 8 8 8 7 7 7 7 6 6 6 6 6 6 6 6 6 6 6 5
9 7 3 2 3 6 7 5 4 1 2 2 3 4 3 5 5 7 4 6 8 10 11 10 11 10 10 10 9 8 8 7 7 7 6 6 6 6 6 6 6 6 5 6 6 6 6 5 4
10 5 3 3 5 6 4 2 1 4 3 2 2 4 4 4 4 4 5 6 7 9 10 10 11 10 10 9 8 8 7 7 6 6 6 6 6 5 6 5 6 5 5 5 5 5 4 4 4
4 2 3 4 8 7 5 2 2 2 2 2 2 2 4 5 3 4 5 5 7 8 9 9 11 10 9 8 8 7 7 7 6 6 5 5 5 5 5 5 5 5 5 4 4 4 4 4 3
3 3 4 6 9 7 4 3 2 2 1 1 1 1 2 4 6 5 5 5 6 7 8 9 10 9 9 8 7 7 6 6 6 6 5 5 5 5 5 5 5 4 4 3 3 3 3 3 3
3 3 4 6 7 5 3 2 2 3 2 1 2 1 1 2 4 3 4 4 6 7 7 8 9 9 8 8 7 7 6 6 6 6 6 5 5 5 6 5 5 5 4 4 4 3 3 2 2
3 3 5 6 6 4 2 3 2 3 3 2 2 1 1 2 3 3 3 4 5 6 6 6 7 7 8 8 7 6 6 6 6 5 5 5 4 5 5 5 5 4 3 3 3 3 3 3 2
3 3 5 5 5 4 1 2 3 5 4 3 3 1 2 2 3 3 3 4 4 4 4 5 5 5 5 6 7 7 7 6 6 5 5 3 3 4 5 5 4 4 3 3 3 2 3 3 3
3 3 4 4 4 4 2 3 3 5 4 3 2 2 1 5 3 3 2 3 3 3 3 3 4 4 4 5 6 6 6 6 5 4 5 3 2 3 3 4 4 3 2 1 2 2 3 4 5
2 3 4 4 5 5 3 3 2 3 4 3 2 2 4 4 3 4 3 3 3 3 3 3 3 3 3 4 4 3 3 3 3 2 2 1 1 2 2 4 3 2 1 1 2 4 4 3 2
2 3 3 4 6 5 4 4 3 3 5 5 2 1 2 3 3 4 4 3 3 3 3 3 3 3 3 2 2 1 1 2 2 2 1 1 1 1 1 1 2 1 1 1 2 3 2 2 1
3 4 4 4 5 4 4 4 4 4 5 4 2 2 3 4 4 4 4 3 4 4 3 3 3 3 3 3 2 2 2 1 2 2 2 1 1 1 1 1 1 0 0 1 1 1 2 2 2
4 4 4 4 4 4 4 4 5 6 5 3 2 1 3 4 4 3 3 3 4 4 3 2 3 3 3 3 2 2 2 1 2 2 2 2 1 1 1 1 1 1 1 1 1 2 2 2 2
2 3 5 5 4 3 4 6 5 6 3 3 2 3 3 3 3 3 4 4 4 4 3 3 3 3 3 2 2 2 2 1 2 2 2 2 2 1 1 1 1 1 1 1 1 2 2 2 1
4 4 5 4 3 2 4 6 5 4 2 3 3 3 3 3 3 3 4 4 4 4 4 3 3 3 3 3 2 2 2 2 2 1 2 2 2 1 1 1 1 1 1 1 1 2 1 1 2
4 4 3 2 2 2 2 6 3 2 2 3 3 2 3 3 4 4 4 4 3 4 4 3 3 3 3 3 2 2 2 2 2 2 2 2 2 2 1 1 1 1 1 1 1 1 1 1 2
2 4 5 3 1 1 2 6 4 1 2 2 2 2 3 4 4 4 5 4 4 4 4 4 3 3 4 3 2 2 2 2 2 2 2 2 2 2 2 1 1 2 1 1 2 1 1 1 1
3 5 5 3 2 2 4 6 4 1 2 2 2 3 3 4 4 5 5 5 4 4 5 4 4 2 3 2 2 2 2 1 1 2 2 2 2 2 2 1 2 2 1 1 1 1 1 1 1
5 6 6 5 3 3 5 7 5 3 3 2 2 2 4 4 5 5 5 5 5 4 5 4 3 2 2 1 1 1 1 1 1 1 2 2 2 2 1 1 1 2 1 2 2 1 1 1 1
6 6 6 4 3 4 5 8 6 3 3 3 2 2 3 4 5 5 5 5 4 4 4 3 3 3 1 1 1 1 2 1 1 1 1 1 1 2 1 1 1 1 1 2 2 1 1 1 1
5 5 6 6 7 5 4 6 4 3 3 3 2 2 3 4 5 5 5 5 4 3 3 2 3 3 2 2 2 2 2 1 1 1 1 1 1 1 1 1 1 1 1 1 1 1 1 1 1
4 4 6 6 5 4 2 4 4 3 4 4 4 3 3 3 4 4 5 5 4 3 3 3 2 2 2 3 3 2 2 1 1 1 1 0 0 0 1 1 1 1 1 1 1 1 1 0 1
3 6 7 6 5 5 3 3 5 2 2 4 4 4 4 3 4 4 4 4 4 4 3 3 3 2 2 2 2 2 1 1 1 1 1 0 0 0 0 1 1 1 1 1 1 1 1 1 1
4 5 6 4 1 3 5 4 4 1 2 3 4 4 4 4 4 4 4 4 4 4 3 3 3 2 2 2 2 1 1 1 1 1 1 1 0 0 1 1 1 1 1 1 1 1 1 1 1
3 2 2 2 1 5 1 2 5 1 2 3 4 5 4 4 4 4 5 4 4 4 4 3 3 2 2 2 1 1 1 1 2 2 2 1 1 1 1 1 1 1 1 1 1 1 1 1 2
2 1 0 2 3 3 1 4 3 3 3 3 4 4 4 4 3 4 5 5 4 4 4 4 3 2 2 2 1 1 1 1 1 1 1 1 1 1 1 1 2 2 2 1 1 1 1 1 2
2 1 1 1 4 4 4 3 2 2 3 3 3 3 3 3 4 4 4 5 5 4 4 4 3 3 2 2 2 2 2 1 1 1 1 1 1 1 1 2 2 2 2 2 2 1 2 2 2
3 3 0 1 2 4 5 3 2 2 3 3 2 2 2 2 3 3 3 4 4 4 4 4 4 3 3 2 2 2 1 1 1 1 2 2 2 1 2 2 2 2 2 2 2 1 2 2 2
3 2 2 2 2 2 4 3 1 2 2 2 2 2 2 2 2 2 2 3 3 3 3 3 3 3 2 2 2 2 1 1 1 1 2 2 2 2 2 2 2 2 2 2 2 2 2 2 2
2 3 3 2 4 3 3 5 2 3 3 2 2 2 2 2 1 1 2 2 2 3 3 3 3 3 3 2 2 2 2 2 2 2 2 2 2 2 3 2 3 3 3 2 3 3 3 3 3
Wind_Direction
302 283 267 258 240 230 239 244 261 255 298 1 2 354 1 7 15 110 119 96 109 123 129 130 126 124 122 118 112 108 108 109 106 106 105 104 102 101 97 94 88 84 82 80 76 69 68 67 64
295 296 274 235 233 233 236 230 243 281 35 12 4 349 16 58 54 96 99 98 111 121 123 126 127 126 124 120 116 113 111 112 112 111 108 106 106 105 100 95 89 83 78 76 72 68 66 60 59
279 273 261 231 230 238 252 291 352 34 34 1 24 4 16 52 67 87 94 106 109 115 118 122 125 125 125 123 122 119 116 113 113 113 110 108 107 106 102 96 87 80 74 76 71 66 62 57 52
280 239 241 246 244 250 267 296 27 26 9 349 48 66 45 29 40 85 101 109 113 112 115 124 125 123 124 125 125 123 120 118 115 116 113 111 108 102 97 93 87 80 74 73 67 60 54 50 39
251 251 233 236 245 250 275 307 338 318 253 275 306 84 60 24 50 77 102 105 111 108 115 125 127 127 124 126 127 125 122 122 120 116 116 113 108 103 96 88 85 81 73 66 56 48 37 32 21
253 243 243 237 246 250 269 327 303 285 287 291 301 293 102 86 65 68 83 92 96 106 117 127 126 126 125 122 125 124 121 117 116 113 112 112 108 104 101 91 85 80 73 63 50 35 19 12 1
272 259 255 260 260 266 288 344 324 321 289 280 313 297 152 124 94 88 80 82 93 101 116 131 137 132 125 119 119 119 116 113 111 110 105 105 110 112 108 93 83 76 65 55 44 30 13 353 334
294 290 265 262 261 273 316 2 344 323 314 342 322 287 180 145 104 92 85 84 91 100 110 122 131 130 132 124 114 120 120 122 120 118 121 122 129 129 119 99 89 79 65 48 34 13 351 334 306
292 267 259 277 288 295 338 345 342 334 321 312 321 327 87 123 127 122 106 101 102 107 104 120 126 128 128 131 127 130 135 138 137 139 149 157 160 139 123 116 112 98 78 44 7 332 313 299 280
248 256 264 307 312 316 318 310 316 307 290 283 302 22 106 132 159 159 158 155 144 130 131 124 119 124 125 133 141 145 148 146 153 137 147 150 99 105 115 138 152 164 208 278 286 294 286 277 264
254 272 286 306 320 324 309 305 313 272 275 273 255 179 156 170 188 181 176 167 148 121 121 109 104 118 121 117 126 111 113 133 117 99 98 87 81 104 122 144 161 209 216 272 292 286 282 294 297
255 290 295 298 316 316 300 297 294 271 272 299 300 187 181 195 193 193 179 161 122 104 104 105 99 100 107 109 113 124 104 98 96 88 65 66 61 54 65 81 80 63 21 336 316 299 311 320 319
267 274 292 299 306 309 305 289 281 273 281 297 312 192 193 195 192 183 157 127 114 109 106 108 108 93 82 89 101 96 87 79 91 83 65 64 64 49 38 43 44 21 5 360 321 312 327 325 327
304 305 296 283 277 293 298 284 271 265 259 262 252 233 209 188 180 163 140 127 121 121 120 114 113 103 91 82 91 85 88 87 72 70 68 60 62 49 33 25 27 9 350 340 314 315 316 315 336
266 275 277 263 252 278 299 284 249 265 234 240 231 220 193 159 144 133 119 118 120 124 120 120 112 108 102 88 77 76 78 82 75 65 57 55 55 39 30 28 22 346 328 333 334 328 332 343 348
259 264 268 237 224 221 260 280 267 263 205 220 200 189 167 138 132 118 115 116 119 118 116 113 112 110 98 85 77 70 63 61 59 53 48 44 38 21 19 27 6 331 347 349 331 335 348 354 351
252 276 284 297 225 244 257 275 286 198 204 215 172 180 156 140 126 115 117 116 114 112 109 99 94 109 106 90 79 72 67 66 57 55 46 30 30 21 27 3 347 345 351 350 328 0 352 344 343
285 285 291 297 295 300 277 279 290 219 208 230 175 164 148 139 134 127 124 120 116 112 107 103 97 100 109 109 97 79 62 62 63 62 59 30 15 19 19 354 355 360 355 346 337 337 345 354 325
300 291 293 303 322 306 276 280 279 236 200 208 185 170 152 138 129 123 120 119 118 112 109 110 115 114 113 118 114 114 114 83 69 61 62 38 9 3 11 19 6 6 354 332 335 349 360 1 2
302 299 299 317 345 312 284 279 269 211 188 187 182 172 155 139 138 130 122 114 114 115 113 120 123 120 122 108 99 98 93 84 89 61 52 40 10 359 3 13 2 358 352 348 351 357 360 347 21
312 307 319 321 315 274 275 288 250 196 166 169 175 153 152 153 147 141 134 129 129 131 129 131 124 126 124 108 94 79 67 54 60 74 51 3 18 15 1 351 358 351 353 334 335 348 359 314 299
302 328 320 312 312 295 292 292 267 181 171 185 185 167 152 147 138 141 140 140 144 141 132 125 125 135 136 125 128 140 151 164 190 161 113 60 63 25 359 338 339 336 340 336 325 5 331 257 268
309 317 301 288 283 292 266 252 275 172 184 193 175 160 147 151 148 151 147 147 147 138 134 131 136 148 136 129 140 143 154 162 144 123 113 64 320 295 326 325 342 342 340 336 333 322 323 250 240
299 290 279 261 274 271 238 213 276 214 201 171 152 145 146 145 149 151 141 136 139 134 129 134 143 144 132 139 138 151 175 173 161 185 182 189 230 269 265 252 258 277 284 288 284 285 282 283 258
287 324 347 339 249 251 217 202 250 157 90 126 142 142 147 149 156 160 153 152 147 144 147 151 146 142 147 151 152 173 205 205 196 203 198 194 214 231 252 247 228 231 240 245 261 262 271 273 260
281 315 156 283 287 303 284 232 238 107 80 81 107 123 134 143 152 158 158 156 156 156 156 156 156 159 163 165 178 193 214 219 207 209 208 194 209 223 220 233 236 227 232 236 232 224 237 245 253
290 260 295 281 283 274 256 220 139 114 105 99 108 119 135 144 150 155 159 158 161 163 164 162 163 166 170 175 178 197 206 212 203 204 207 205 218 221 215 222 241 231 224 224 222 222 233 231 238
283 311 304 221 288 290 285 258 227 165 171 151 142 143 143 134 138 150 158 156 157 164 165 163 170 175 176 180 191 194 200 215 214 202 206 211 223 222 226 234 238 237 224 223 219 229 239 237 248
202 232 237 254 249 256 293 286 21 114 136 148 153 140 137 137 148 158 158 153 153 157 163 170 176 171 175 188 196 194 202 212 217 218 219 213 223 223 226 231 234 232 228 226 223 226 227 236 249
225 226 201 212 258 238 260 273 58 75 82 95 124 137 137 136 147 155 152 154 158 168 172 179 182 177 184 190 199 201 204 213 220 231 235 223 227 229 228 230 236 230 227 225 225 231 231 232 241